Waynesville, MO

1:50 AM CDT on July 25, 2016 (GMT -0500)
Waynesville Regional At Forney Field

Weather History for KTBN - February, 2014

Change the Weather History Date:

Thursday, February 20, 2014

  Actual Average Record
Temperature  
Mean Temperature 54 °F -  
Max Temperature 72 °F 46 °F 75 °F (2016)
Min Temperature 36 °F 32 °F 15 °F (2015)
Degree Days  
Heating Degree Days 11    
Growing Degree Days 4 (Base 50)    
Moisture  
Dew Point 50 °F    
Average Humidity 84    
Maximum Humidity 100    
Minimum Humidity 35    
Precipitation  
Precipitation 0.15 in - - ()
Sea Level Pressure  
Sea Level Pressure 29.57 in    
Wind  
Wind Speed 12 mph (South)    
Max Wind Speed 31 mph    
Max Gust Speed 48 mph    
Visibility 9 miles    
Events Rain , Thunderstorm    
Averages and records for this station are not official NWS values.
T = Trace of Precipitation, MM = Missing Value Source: NWS Daily Summary

Daily Weather History Graph

Daily Weather History Graph

Search for Another Location

Airport or City:

Trip Planner

Search our weather history database for the weather conditions in past years. The results will help you decide how hot, cold, wet, or windy it might be!

Date:

Astronomy

Feb. 20, 2014 Rise Set
Actual Time 6:52 AM CST 5:53 PM CST
Civil Twilight 6:25 AM CST 6:19 PM CST
Nautical Twilight 5:54 AM CST 6:50 PM CST
Astronomical Twilight 5:24 AM CST 7:20 PM CST
Moon 11:40 PM CST (2/20) 9:41 AM CST (2/20)
Length of Visible Light 11h 54m
Length of Day
11h 01m
Waning Gibbous, 70% of the Moon is Illuminated
Feb 20
Waning Gibbous
Feb 22
Last Quarter
Mar 1
New
Mar 8
First Quarter
Mar 16
Full

Hourly Weather History & Observations

Time (CST) Temp. Windchill Dew Point Humidity Pressure Visibility Wind Dir Wind Speed Gust Speed Precip Events Conditions
12:58 AM 53.4 °F - 43.7 °F 70% 29.68 in 10.0 mi SSE 11.5 mph - N/A   Overcast
1:53 AM 55.4 °F - 51.8 °F 88% 29.64 in 10.0 mi SSE 10.4 mph 18.4 mph N/A   Mostly Cloudy
1:58 AM 54.7 °F - 51.8 °F 90% 29.64 in 10.0 mi SSE 11.5 mph - N/A   Overcast
2:58 AM 55.0 °F - 55.0 °F 100% 29.61 in 10.0 mi SSE 15.0 mph - N/A   Overcast
3:12 AM 55.4 °F - 55.4 °F 100% 29.61 in 10.0 mi SSE 5.8 mph - N/A   Light Drizzle
3:15 AM 55.4 °F - 55.4 °F 100% 29.63 in 8.0 mi Variable 3.5 mph - N/A Rain , Thunderstorm Light Thunderstorms and Rain
3:20 AM 55.4 °F - 55.4 °F 100% 29.62 in 2.5 mi South 4.6 mph - N/A Rain , Thunderstorm Light Thunderstorms and Rain
3:25 AM 55.4 °F - 55.4 °F 100% 29.60 in 2.5 mi SSE 8.1 mph - N/A Rain , Thunderstorm Light Thunderstorms and Rain
3:30 AM 55.4 °F - 55.4 °F 100% 29.60 in 8.0 mi SSE 12.7 mph - N/A Rain , Thunderstorm Light Thunderstorms and Rain
3:33 AM 55.4 °F - 55.4 °F 100% 29.59 in 9.0 mi SSE 11.5 mph - N/A Rain Light Rain
3:40 AM 53.6 °F - 53.6 °F 100% 29.58 in 10.0 mi SE 15.0 mph - N/A   Overcast
3:54 AM 53.6 °F - 53.6 °F 100% 29.59 in 9.0 mi SSE 8.1 mph - N/A   Light Drizzle
3:58 AM 54.0 °F - 54.0 °F 100% 29.59 in 8.0 mi SSE 5.8 mph - 0.07 in   Light Drizzle
4:17 AM 53.6 °F - 53.6 °F 100% 29.59 in 6.0 mi SE 5.8 mph - N/A Rain , Thunderstorm Light Thunderstorms and Rain
4:32 AM 53.6 °F - 53.6 °F 100% 29.57 in 5.0 mi ESE 8.1 mph - N/A Rain , Thunderstorm Light Rain
4:42 AM 53.6 °F - 53.6 °F 100% 29.58 in 5.0 mi South 2.3 mph - N/A   Overcast
4:45 AM 53.6 °F - 53.6 °F 100% 29.58 in 5.0 mi West 1.2 mph - N/A Rain Light Rain
4:58 AM 53.6 °F - 53.6 °F 100% 29.57 in 4.0 mi SE 5.8 mph - 0.03 in Rain Light Rain
5:18 AM 55.4 °F - 55.4 °F 100% 29.55 in 7.0 mi SSE 11.5 mph 19.6 mph N/A   Overcast
5:23 AM 55.4 °F - 55.4 °F 100% 29.55 in 9.0 mi SE 11.5 mph 19.6 mph N/A   Overcast
5:33 AM 55.4 °F - 55.4 °F 100% 29.54 in 7.0 mi SE 10.4 mph - N/A   Overcast
5:35 AM 55.4 °F - 55.4 °F 100% 29.54 in 7.0 mi SE 9.2 mph - N/A Rain Light Rain
5:51 AM 55.4 °F - 55.4 °F 100% 29.53 in 5.0 mi SE 10.4 mph - N/A   Overcast
5:58 AM 55.0 °F - 55.0 °F 100% 29.53 in 6.0 mi SE 10.4 mph - 0.04 in   Overcast
6:08 AM 55.4 °F - 55.4 °F 100% 29.52 in 6.0 mi SE 10.4 mph - N/A   Overcast
6:58 AM 57.0 °F - 57.0 °F 100% 29.50 in 10.0 mi SE 11.5 mph - N/A   Overcast
7:58 AM 58.8 °F - 58.8 °F 100% 29.49 in 10.0 mi SSE 11.5 mph - N/A   Overcast
8:53 AM 60.8 °F - 60.8 °F 100% 29.48 in 10.0 mi South 15.0 mph 21.9 mph N/A   Overcast
8:58 AM 61.0 °F - 61.0 °F 100% 29.47 in 10.0 mi South 15.0 mph 23.0 mph N/A   Overcast
9:58 AM 64.2 °F - 62.1 °F 93% 29.44 in 10.0 mi South 20.7 mph 28.8 mph N/A   Overcast
10:03 AM 64.4 °F - 60.8 °F 88% 29.43 in 10.0 mi South 20.7 mph 29.9 mph N/A   Overcast
10:08 AM 64.4 °F - 60.8 °F 88% 29.43 in 10.0 mi South 12.7 mph 29.9 mph N/A   Mostly Cloudy
10:18 AM 66.2 °F - 60.8 °F 83% 29.42 in 10.0 mi South 15.0 mph 24.2 mph N/A   Overcast
10:23 AM 66.2 °F - 60.8 °F 83% 29.42 in 10.0 mi South 20.7 mph 26.5 mph N/A   Overcast
10:28 AM 66.2 °F - 60.8 °F 83% 29.41 in 10.0 mi South 19.6 mph 32.2 mph N/A   Overcast
10:33 AM 66.2 °F - 60.8 °F 83% 29.41 in 10.0 mi South 13.8 mph 32.2 mph N/A   Overcast
10:38 AM 66.2 °F - 59.0 °F 78% 29.40 in 10.0 mi South 18.4 mph 32.2 mph N/A   Mostly Cloudy
10:58 AM 67.8 °F - 59.2 °F 74% 29.39 in 10.0 mi SSW 18.4 mph 31.1 mph N/A   Scattered Clouds
11:58 AM 71.2 °F - 56.8 °F 60% 29.36 in 10.0 mi SSW 23.0 mph 36.8 mph 0.01 in   Mostly Cloudy
12:58 PM 72.5 °F - 50.5 °F 46% 29.33 in 10.0 mi SSW 18.4 mph 35.7 mph N/A   Mostly Cloudy
1:42 PM 69.8 °F - 46.4 °F 43% 29.39 in 10.0 mi WSW 23.0 mph 43.7 mph N/A   Mostly Cloudy
1:51 PM 69.8 °F - 41.0 °F 35% 29.41 in 10.0 mi WSW 31.1 mph 44.9 mph N/A   Squalls
1:58 PM 68.0 °F - 41.4 °F 38% 29.42 in 10.0 mi WSW 28.8 mph 47.2 mph N/A   Partly Cloudy
2:58 PM 50.0 °F - 41.0 °F 71% 29.57 in 10.0 mi West 25.3 mph 48.3 mph N/A   Mostly Cloudy
3:58 PM 43.5 °F 35.8 °F 34.9 °F 72% 29.68 in 10.0 mi West 17.3 mph 39.1 mph N/A   Overcast
4:58 PM 41.7 °F 32.9 °F 32.4 °F 69% 29.75 in 10.0 mi West 19.6 mph 32.2 mph N/A   Overcast
5:03 PM 41.0 °F 33.1 °F 32.0 °F 70% 29.74 in 10.0 mi West 15.0 mph 32.2 mph N/A   Overcast
5:08 PM 41.0 °F 33.9 °F 32.0 °F 70% 29.74 in 10.0 mi West 12.7 mph 29.9 mph N/A   Overcast
5:23 PM 41.0 °F 35.2 °F 32.0 °F 70% 29.75 in 10.0 mi West 9.2 mph 23.0 mph N/A   Overcast
5:58 PM 41.9 °F 34.0 °F 31.5 °F 66% 29.79 in 10.0 mi West 16.1 mph 26.5 mph N/A   Overcast
6:58 PM 40.3 °F 32.6 °F 30.6 °F 68% 29.83 in 10.0 mi West 13.8 mph 21.9 mph N/A   Clear
7:58 PM 37.9 °F 34.4 °F 28.8 °F 70% 29.83 in 10.0 mi WSW 4.6 mph - N/A   Clear
8:58 PM 36.3 °F 31.6 °F 28.9 °F 75% 29.83 in 10.0 mi Variable 5.8 mph - N/A   Clear
9:58 PM 36.0 °F 29.6 °F 29.1 °F 76% 29.79 in 10.0 mi SSW 8.1 mph - N/A   Clear
10:58 PM 37.9 °F 30.0 °F 27.3 °F 66% 29.79 in 10.0 mi WSW 12.7 mph 18.4 mph N/A   Clear
11:58 PM 38.8 °F 32.6 °F 24.1 °F 55% 29.78 in 10.0 mi WSW 9.2 mph 19.6 mph N/A   Clear